Rutland, VT

2:42 PM EDT on August 23, 2017 (GMT -0400)
Rutland State

Weather History for KRUT - June, 2014

Change the Weather History Date:

Tuesday, June 3, 2014

  Actual Average Record
Temperature  
Mean Temperature 70 °F -  
Max Temperature 84 °F - 88 °F (1967)
Min Temperature 55 °F - 33 °F (1986)
Degree Days  
Heating Degree Days 0    
Month to date heating degree days 6  
Since 1 June heating degree days 6  
Since 1 July heating degree days 7903  
Cooling Degree Days 5    
Month to date cooling degree days 5  
Year to date cooling degree days 12  
Since 1 June cooling degree days 5  
Growing Degree Days 20 (Base 50)    
Moisture  
Dew Point 60 °F    
Average Humidity 70    
Maximum Humidity 93    
Minimum Humidity 47    
Precipitation  
Precipitation 0.45 in - 1.62 in (2006)
Month to date precipitation 0.45  
Year to date precipitation 10.99  
Sea Level Pressure  
Sea Level Pressure 29.91 in    
Wind  
Wind Speed 8 mph (SSE)    
Max Wind Speed 15 mph    
Max Gust Speed 20 mph    
Visibility 10 miles    
Events Thunderstorm    
T = Trace of Precipitation, MM = Missing Value Source: NWS Daily Summary

Daily Weather History Graph

Daily Weather History Graph

Search for Another Location

Airport or City:

Trip Planner

Search our weather history database for the weather conditions in past years. The results will help you decide how hot, cold, wet, or windy it might be!

Date:

Astronomy

Jun. 03, 2014 Rise Set
Actual Time 5:12 AM EDT 8:27 PM EDT
Civil Twilight 4:37 AM EDT 9:02 PM EDT
Nautical Twilight 3:52 AM EDT 9:48 PM EDT
Astronomical Twilight 2:56 AM EDT 10:44 PM EDT
Moon 10:39 AM EDT (6/3) No Moon Set
Length of Visible Light 16h 25m
Length of Day
15h 14m
Waxing Crescent, 30% of the Moon is Illuminated
Jun 3
Waxing Crescent
Jun 5
First Quarter
Jun 13
Full
Jun 19
Last Quarter
Jun 27
New

Hourly Weather History & Observations

Time (EDT) Temp. Heat Index Dew Point Humidity Pressure Visibility Wind Dir Wind Speed Gust Speed Precip Events Conditions
12:15 AM 60.8 °F - 53.6 °F 77% 30.00 in 10.0 mi SE 10.4 mph - N/A   Unknown
12:35 AM 59.0 °F - 53.6 °F 82% 30.00 in 10.0 mi SE 11.5 mph - N/A   Unknown
12:55 AM 59.0 °F - 53.6 °F 82% 30.00 in 10.0 mi SE 10.4 mph - N/A   Unknown
1:15 AM 59.0 °F - 53.6 °F 82% 30.00 in 10.0 mi SSE 9.2 mph - N/A   Unknown
1:35 AM 57.2 °F - 53.6 °F 88% 29.99 in 10.0 mi SSE 5.8 mph - N/A   Unknown
1:55 AM 57.2 °F - 53.6 °F 88% 29.99 in 10.0 mi SE 11.5 mph - N/A   Unknown
2:15 AM 59.0 °F - 53.6 °F 82% 29.99 in 10.0 mi SE 12.7 mph - N/A   Unknown
2:35 AM 59.0 °F - 53.6 °F 82% 29.98 in 10.0 mi SE 12.7 mph - N/A   Unknown
2:55 AM 59.0 °F - 53.6 °F 82% 29.98 in 10.0 mi ESE 11.5 mph - N/A   Unknown
3:15 AM 59.0 °F - 53.6 °F 82% 29.98 in 10.0 mi SE 9.2 mph - N/A   Unknown
3:35 AM 57.2 °F - 53.6 °F 88% 29.98 in 10.0 mi SE 10.4 mph - N/A   Unknown
3:55 AM 57.2 °F - 53.6 °F 88% 29.97 in 10.0 mi SE 9.2 mph - N/A   Unknown
4:15 AM 57.2 °F - 53.6 °F 88% 29.98 in 10.0 mi SSE 8.1 mph - N/A   Unknown
4:35 AM 57.2 °F - 53.6 °F 88% 29.97 in 10.0 mi SE 9.2 mph - N/A   Unknown
4:55 AM 57.2 °F - 53.6 °F 88% 29.97 in 10.0 mi SE 9.2 mph - N/A   Unknown
5:15 AM 57.2 °F - 53.6 °F 88% 29.97 in 10.0 mi SSE 8.1 mph - N/A   Unknown
5:35 AM 57.2 °F - 53.6 °F 88% 29.98 in 10.0 mi SE 9.2 mph - N/A   Unknown
5:55 AM 57.2 °F - 53.6 °F 88% 29.98 in 10.0 mi SE 10.4 mph - N/A   Unknown
6:15 AM 59.0 °F - 53.6 °F 82% 29.98 in 10.0 mi SSE 6.9 mph - N/A   Unknown
6:35 AM 60.8 °F - 53.6 °F 77% 29.97 in 10.0 mi SE 10.4 mph - N/A   Unknown
6:55 AM 60.8 °F - 55.4 °F 82% 29.97 in 10.0 mi SE 9.2 mph - N/A   Unknown
7:15 AM 62.6 °F - 55.4 °F 77% 29.97 in 10.0 mi SE 6.9 mph - N/A   Unknown
7:35 AM 64.4 °F - 57.2 °F 77% 29.97 in 10.0 mi SE 8.1 mph - N/A   Unknown
7:55 AM 66.2 °F - 57.2 °F 73% 29.96 in 10.0 mi SE 6.9 mph - N/A   Unknown
8:15 AM 69.8 °F - 57.2 °F 64% 29.96 in 10.0 mi ESE 4.6 mph - N/A   Unknown
8:35 AM 71.6 °F - 59.0 °F 64% 29.96 in 10.0 mi Calm Calm - N/A   Unknown
8:55 AM 71.6 °F - 60.8 °F 69% 29.96 in 10.0 mi Calm Calm - N/A   Unknown
9:15 AM 73.4 °F - 60.8 °F 65% 29.95 in 10.0 mi Calm Calm - N/A   Unknown
9:35 AM 73.4 °F - 62.6 °F 69% 29.94 in 10.0 mi Calm Calm - N/A   Unknown
9:55 AM 75.2 °F - 62.6 °F 65% 29.94 in 10.0 mi Calm Calm - N/A   Unknown
10:15 AM 77.0 °F - 64.4 °F 65% 29.94 in 10.0 mi SSE 4.6 mph - N/A   Unknown
10:35 AM 78.8 °F - 64.4 °F 61% 29.93 in 10.0 mi South 3.5 mph - N/A   Unknown
10:55 AM 78.8 °F - 64.4 °F 61% 29.92 in 10.0 mi Calm Calm - N/A   Unknown
11:15 AM 80.6 °F 82.3 °F 64.4 °F 58% 29.92 in 10.0 mi SE 4.6 mph - N/A   Unknown
11:35 AM 80.6 °F 82.3 °F 64.4 °F 58% 29.91 in 10.0 mi South 10.4 mph - N/A   Unknown
11:55 AM 80.6 °F 81.8 °F 62.6 °F 54% 29.91 in 10.0 mi ESE 6.9 mph - N/A   Unknown
12:15 PM 80.6 °F 81.8 °F 62.6 °F 54% 29.90 in 10.0 mi SSE 5.8 mph - N/A   Unknown
12:35 PM 80.6 °F 82.3 °F 64.4 °F 58% 29.90 in 10.0 mi Calm Calm - N/A   Unknown
12:55 PM 80.6 °F 82.3 °F 64.4 °F 58% 29.89 in 10.0 mi SSE 6.9 mph - N/A   Unknown
1:15 PM 82.4 °F 82.9 °F 60.8 °F 48% 29.88 in 10.0 mi SSE 13.8 mph - N/A   Unknown
1:35 PM 80.6 °F 81.5 °F 60.8 °F 51% 29.87 in 9.0 mi SSE 10.4 mph - N/A   Unknown
1:55 PM 82.4 °F 82.9 °F 60.8 °F 48% 29.85 in 10.0 mi South 11.5 mph 17.3 mph N/A   Unknown
2:15 PM 84.2 °F 84.4 °F 60.8 °F 45% 29.84 in 10.0 mi SSE 12.7 mph 17.3 mph N/A   Unknown
2:35 PM 82.4 °F 82.9 °F 60.8 °F 48% 29.83 in 10.0 mi South 10.4 mph - N/A   Unknown
2:55 PM 82.4 °F 82.9 °F 60.8 °F 48% 29.83 in 10.0 mi SSE 15.0 mph 19.6 mph N/A   Unknown
3:15 PM 82.4 °F 82.5 °F 59.0 °F 45% 29.82 in 10.0 mi SSE 16.1 mph 20.7 mph N/A   Unknown
3:55 PM 80.6 °F 81.5 °F 60.8 °F 51% 29.81 in 10.0 mi SE 15.0 mph - N/A   Unknown
4:15 PM 80.6 °F 81.5 °F 60.8 °F 51% 29.81 in 10.0 mi SSW 5.8 mph - N/A   Unknown
4:35 PM 80.6 °F 81.5 °F 60.8 °F 51% 29.81 in 10.0 mi SSE 13.8 mph 21.9 mph N/A Thunderstorm Unknown
4:55 PM 78.8 °F - 62.6 °F 57% 29.80 in 10.0 mi WSW 3.5 mph - N/A   Unknown
5:15 PM 75.2 °F - 62.6 °F 65% 29.80 in 10.0 mi NW 4.6 mph - N/A   Unknown
5:35 PM 75.2 °F - 64.4 °F 69% 29.79 in 10.0 mi Calm Calm - N/A Thunderstorm Unknown
5:55 PM 73.4 °F - 64.4 °F 73% 29.82 in 10.0 mi SW 5.8 mph - N/A Thunderstorm Unknown
6:15 PM 73.4 °F - 62.6 °F 69% 29.84 in 10.0 mi SW 6.9 mph 16.1 mph N/A   Unknown
6:35 PM 69.8 °F - 64.4 °F 83% 29.86 in 3.0 mi South 11.5 mph - 0.20 in Thunderstorm Thunderstorm
6:55 PM 68.0 °F - 64.4 °F 88% 29.85 in 8.0 mi South 3.5 mph - 0.32 in   Unknown
7:15 PM 66.2 °F - 66.2 °F 100% 29.85 in 10.0 mi East 5.8 mph - 0.01 in   Unknown
7:35 PM 66.2 °F - 64.4 °F 94% 29.84 in 10.0 mi ESE 9.2 mph - 0.02 in   Unknown
7:55 PM 66.2 °F - 64.4 °F 94% 29.86 in 9.0 mi South 4.6 mph - 0.03 in   Unknown
8:15 PM 66.2 °F - 64.4 °F 94% 29.86 in 9.0 mi East 4.6 mph - 0.02 in   Unknown
8:35 PM 66.2 °F - 64.4 °F 94% 29.86 in 10.0 mi SE 10.4 mph - 0.02 in   Unknown
8:55 PM 66.2 °F - 64.4 °F 94% 29.86 in 8.0 mi SSE 5.8 mph - 0.04 in   Unknown
9:15 PM 66.2 °F - 64.4 °F 94% 29.87 in 10.0 mi SSE 4.6 mph - 0.02 in   Unknown
9:35 PM 66.2 °F - 64.4 °F 94% 29.87 in 10.0 mi SE 5.8 mph - 0.04 in   Unknown
9:55 PM 66.2 °F - 64.4 °F 94% 29.87 in 10.0 mi SE 11.5 mph - 0.06 in   Unknown
10:15 PM 66.2 °F - 62.6 °F 88% 29.87 in 10.0 mi South 8.1 mph - N/A   Unknown
10:35 PM 66.2 °F - 62.6 °F 88% 29.86 in 10.0 mi SSE 9.2 mph - N/A   Unknown
11:15 PM 64.4 °F - 60.8 °F 88% 29.85 in 10.0 mi ESE 12.7 mph 19.6 mph N/A   Unknown
11:35 PM 64.4 °F - 60.8 °F 88% 29.85 in 10.0 mi SE 13.8 mph - N/A   Unknown
11:55 PM 62.6 °F - 60.8 °F 94% 29.84 in 10.0 mi SE 12.7 mph - N/A   Unknown